When you browse on this site, cookies collect data to enhance your experience and personalize the content and advertising you see.
Visit our Privacy Policy to learn more. By continuing to use the site, you agree to this use of cookies and data.
  • In United Kingdom
  • List of Countries
  • For 7 days
  • Water Temperature
  • Weather Map
  • Weather Widgets
  • user-avatar
    Login

    Hourly Weather Maslakhat

    Today, 22 August, Thursday

    Time Temperature Precipitation Wind Pressure Humidity
    00:00 +25°C° 0 mm 2 mps 724 mmHg 21%
    01:00 +24°C° 0 mm 2 mps 723 mmHg 21%
    02:00 +23°C° 0 mm 2 mps 723 mmHg 21%
    03:00 +23°C° 0 mm 2 mps 723 mmHg 22%
    04:00 +23°C° 0 mm 2 mps 723 mmHg 23%
    05:00 +21°C° 0 mm 2 mps 723 mmHg 23%
    06:00 +25°C° 0 mm 2 mps 723 mmHg 20%
    07:00 +28°C° 0 mm 2 mps 723 mmHg 17%
    08:00 +30°C° 0 mm 2 mps 723 mmHg 14%
    09:00 +34°C° 0 mm 2 mps 724 mmHg 12%
    10:00 +36°C° 0 mm 3 mps 724 mmHg 11%
    11:00 +38°C° 0 mm 3 mps 724 mmHg 10%
    12:00 +40°C° 0 mm 3 mps 723 mmHg 9%
    13:00 +42°C° 0 mm 3 mps 723 mmHg 8%
    14:00 +43°C° 0 mm 4 mps 723 mmHg 7%
    15:00 +43°C° 0 mm 4 mps 723 mmHg 8%
    16:00 +42°C° 0 mm 5 mps 723 mmHg 8%
    17:00 +42°C° 0 mm 5 mps 723 mmHg 8%
    18:00 +38°C° 0 mm 4 mps 723 mmHg 11%
    19:00 +35°C° 0 mm 3 mps 723 mmHg 13%
    20:00 +31°C° 0 mm 3 mps 723 mmHg 16%
    21:00 +29°C° 0 mm 2 mps 723 mmHg 18%
    22:00 +27°C° 0 mm 2 mps 723 mmHg 21%
    23:00 +26°C° 0 mm 2 mps 723 mmHg 23%

    Tomorrow, 23 August, Friday

    Time Temperature Precipitation Wind Pressure Humidity
    00:00 +25°C° 0 mm 2 mps 722 mmHg 24%
    01:00 +25°C° 0 mm 2 mps 722 mmHg 25%
    02:00 +25°C° 0 mm 2 mps 722 mmHg 26%
    03:00 +24°C° 0 mm 2 mps 722 mmHg 26%
    04:00 +24°C° 0 mm 3 mps 722 mmHg 27%
    05:00 +24°C° 0 mm 3 mps 723 mmHg 27%
    06:00 +26°C° 0 mm 2 mps 723 mmHg 25%
    07:00 +27°C° 0 mm 2 mps 723 mmHg 22%
    08:00 +29°C° 0 mm 2 mps 723 mmHg 19%
    09:00 +32°C° 0 mm 2 mps 723 mmHg 17%
    10:00 +35°C° 0 mm 2 mps 723 mmHg 15%
    11:00 +38°C° 0 mm 2 mps 723 mmHg 12%
    12:00 +39°C° 0 mm 2 mps 723 mmHg 11%
    13:00 +40°C° 0 mm 3 mps 722 mmHg 11%
    14:00 +42°C° 0 mm 4 mps 722 mmHg 10%
    15:00 +42°C° 0 mm 5 mps 722 mmHg 10%
    16:00 +42°C° 0 mm 5 mps 722 mmHg 11%
    17:00 +42°C° 0 mm 6 mps 722 mmHg 11%
    18:00 +38°C° 0.1 mm 6 mps 722 mmHg 18%
    19:00 +33°C° 0.1 mm 6 mps 723 mmHg 25%
    20:00 +29°C° 0.1 mm 6 mps 723 mmHg 32%
    21:00 +27°C° 0.3 mm 4 mps 723 mmHg 39%
    22:00 +26°C° 0.3 mm 3 mps 724 mmHg 46%
    23:00 +24°C° 0.3 mm 1 mps 724 mmHg 53%

    Day after tomorrow, 24 August, Saturday

    Time Temperature Precipitation Wind Pressure Humidity
    00:00 +24°C° 0.2 mm 1 mps 724 mmHg 54%
    01:00 +24°C° 0.2 mm 1 mps 724 mmHg 55%
    02:00 +23°C° 0.2 mm 1 mps 725 mmHg 56%
    03:00 +23°C° 0.1 mm 1 mps 725 mmHg 56%
    04:00 +22°C° 0.1 mm 1 mps 725 mmHg 57%
    05:00 +21°C° 0.1 mm 2 mps 725 mmHg 58%
    06:00 +24°C° 0 mm 2 mps 725 mmHg 52%
    07:00 +26°C° 0 mm 2 mps 725 mmHg 46%
    08:00 +27°C° 0 mm 2 mps 725 mmHg 41%
    09:00 +30°C° 0 mm 2 mps 725 mmHg 33%
    10:00 +33°C° 0 mm 1 mps 726 mmHg 25%
    11:00 +36°C° 0 mm 1 mps 726 mmHg 17%
    12:00 +37°C° 0 mm 1 mps 725 mmHg 16%
    13:00 +39°C° 0 mm 2 mps 725 mmHg 15%
    14:00 +40°C° 0 mm 2 mps 724 mmHg 13%
    15:00 +40°C° 0 mm 2 mps 724 mmHg 13%
    16:00 +40°C° 0 mm 3 mps 724 mmHg 12%
    17:00 +40°C° 0 mm 3 mps 724 mmHg 11%
    18:00 +37°C° 0 mm 3 mps 724 mmHg 15%
    19:00 +34°C° 0 mm 3 mps 724 mmHg 18%
    20:00 +30°C° 0 mm 2 mps 724 mmHg 21%
    21:00 +29°C° 0 mm 2 mps 724 mmHg 23%
    22:00 +28°C° 0 mm 2 mps 724 mmHg 25%
    23:00 +27°C° 0 mm 2 mps 724 mmHg 26%

    25 August, Sunday

    Time Temperature Precipitation Wind Pressure Humidity
    00:00 +26°C° 0 mm 2 mps 724 mmHg 27%
    01:00 +25°C° 0 mm 2 mps 724 mmHg 28%
    02:00 +24°C° 0 mm 2 mps 723 mmHg 28%
    03:00 +24°C° 0 mm 2 mps 723 mmHg 29%
    04:00 +24°C° 0 mm 2 mps 724 mmHg 29%
    05:00 +23°C° 0 mm 2 mps 724 mmHg 30%
    06:00 +26°C° 0 mm 2 mps 724 mmHg 26%
    07:00 +29°C° 0 mm 2 mps 724 mmHg 22%
    08:00 +31°C° 0 mm 2 mps 724 mmHg 18%
    09:00 +34°C° 0 mm 1 mps 724 mmHg 16%
    10:00 +37°C° 0 mm 1 mps 724 mmHg 14%
    11:00 +40°C° 0 mm 1 mps 724 mmHg 11%
    12:00 +41°C° 0 mm 1 mps 724 mmHg 10%
    13:00 +42°C° 0 mm 1 mps 723 mmHg 9%
    14:00 +43°C° 0 mm 1 mps 723 mmHg 8%
    15:00 +43°C° 0 mm 2 mps 723 mmHg 7%
    16:00 +42°C° 0 mm 2 mps 723 mmHg 7%
    17:00 +42°C° 0 mm 2 mps 723 mmHg 7%
    18:00 +39°C° 0 mm 2 mps 723 mmHg 9%
    19:00 +35°C° 0 mm 2 mps 723 mmHg 12%
    20:00 +31°C° 0 mm 2 mps 723 mmHg 15%
    21:00 +30°C° 0 mm 2 mps 723 mmHg 17%
    22:00 +28°C° 0 mm 2 mps 723 mmHg 18%
    23:00 +27°C° 0 mm 2 mps 722 mmHg 20%

    26 August, Monday

    Time Temperature Precipitation Wind Pressure Humidity
    00:00 +26°C° 0 mm 2 mps 722 mmHg 20%
    01:00 +26°C° 0 mm 2 mps 722 mmHg 21%
    02:00 +25°C° 0 mm 2 mps 722 mmHg 21%
    03:00 +25°C° 0 mm 2 mps 722 mmHg 21%
    04:00 +24°C° 0 mm 1 mps 722 mmHg 21%
    05:00 +24°C° 0 mm 1 mps 722 mmHg 22%
    06:00 +26°C° 0 mm 2 mps 722 mmHg 19%
    07:00 +29°C° 0 mm 2 mps 722 mmHg 16%
    08:00 +31°C° 0 mm 2 mps 723 mmHg 14%
    09:00 +35°C° 0 mm 2 mps 722 mmHg 12%
    10:00 +38°C° 0 mm 2 mps 722 mmHg 11%
    11:00 +40°C° 0 mm 2 mps 722 mmHg 9%
    12:00 +42°C° 0 mm 2 mps 722 mmHg 9%
    13:00 +43°C° 0 mm 2 mps 722 mmHg 8%
    14:00 +45°C° 0 mm 3 mps 722 mmHg 7%
    15:00 +45°C° 0 mm 3 mps 722 mmHg 7%
    16:00 +44°C° 0 mm 4 mps 722 mmHg 7%
    17:00 +45°C° 0 mm 5 mps 722 mmHg 8%
    18:00 +41°C° 0 mm 4 mps 722 mmHg 10%
    19:00 +36°C° 0 mm 3 mps 722 mmHg 13%
    20:00 +32°C° 0 mm 2 mps 722 mmHg 15%
    21:00 +31°C° 0 mm 2 mps 722 mmHg 16%
    22:00 +29°C° 0 mm 2 mps 722 mmHg 18%
    23:00 +28°C° 0 mm 2 mps 722 mmHg 19%

    27 August, Tuesday

    Time Temperature Precipitation Wind Pressure Humidity
    00:00 +27°C° 0 mm 2 mps 722 mmHg 20%
    01:00 +27°C° 0 mm 2 mps 722 mmHg 21%
    02:00 +26°C° 0 mm 2 mps 722 mmHg 22%
    03:00 +25°C° 0 mm 2 mps 722 mmHg 23%
    04:00 +25°C° 0 mm 2 mps 722 mmHg 24%
    05:00 +24°C° 0 mm 2 mps 722 mmHg 25%
    06:00 +27°C° 0 mm 2 mps 722 mmHg 22%
    07:00 +29°C° 0 mm 3 mps 722 mmHg 19%
    08:00 +31°C° 0 mm 3 mps 723 mmHg 16%
    09:00 +35°C° 0 mm 3 mps 722 mmHg 14%
    10:00 +37°C° 0 mm 3 mps 722 mmHg 12%
    11:00 +40°C° 0 mm 3 mps 722 mmHg 9%
    12:00 +42°C° 0 mm 3 mps 722 mmHg 8%
    13:00 +44°C° 0 mm 4 mps 722 mmHg 8%
    14:00 +45°C° 0 mm 4 mps 722 mmHg 7%
    15:00 +46°C° 0 mm 5 mps 722 mmHg 7%
    16:00 +45°C° 0 mm 6 mps 722 mmHg 7%
    17:00 +45°C° 0 mm 6 mps 722 mmHg 6%
    18:00 +41°C° 0 mm 6 mps 722 mmHg 8%
    19:00 +38°C° 0 mm 6 mps 723 mmHg 10%
    20:00 +34°C° 0 mm 6 mps 723 mmHg 12%
    21:00 +33°C° 0 mm 5 mps 723 mmHg 13%
    22:00 +32°C° 0 mm 5 mps 724 mmHg 14%
    23:00 +29°C° 0 mm 4 mps 724 mmHg 15%
    Show more